HS5SQI-1 Weather Reports


time (UTC)temp
F
wind
direction
speed
knots
gust
knots
rain 1hr
in
rain 24hr
in
rain mn
in
humidity
%
barometer
mb
20260505025750 81 0 0.0 0.0 0.00 0.00 0.00 99 970.0
20260505024728 81 0 0.0 0.0 0.00 0.00 0.00 99 970.0
20260505023706 81 0 0.0 0.0 0.00 0.00 0.00 99 970.0
20260505022644 81 0 0.0 0.0 0.00 0.00 0.00 99 970.0
20260505021622 81 0 0.0 0.0 0.00 0.00 0.00 99 970.0
20260505020600 81 0 0.0 0.0 0.00 0.00 0.00 99 970.0
20260505015538 81 0 0.0 0.0 0.00 0.00 0.00 99 970.0
20260505014516 80 0 0.0 0.0 0.00 0.00 0.00 99 970.0
20260505013454 80 0 0.0 0.0 0.00 0.00 0.00 99 970.0
20260505012432 79 0 0.0 0.0 0.00 0.00 0.00 99 970.0
20260505011410 78 0 0.0 0.0 0.00 0.00 0.00 99 970.0
20260505010348 77 0 0.0 0.0 0.00 0.00 0.00 99 970.0
20260505005326 78 0 0.0 0.0 0.00 0.00 0.00 99 969.0
20260505004304 76 0 0.0 0.0 0.00 0.00 0.00 99 969.0
20260505003242 75 0 0.0 0.0 0.00 0.00 0.00 99 969.0
20260505002219 77 0 0.0 0.0 0.00 0.00 0.00 99 969.0
20260505001157 77 0 0.0 0.0 0.00 0.00 0.00 99 969.0
20260505000135 78 0 0.0 0.0 0.00 0.00 0.00 99 969.0
20260504235113 78 0 0.0 0.0 0.00 0.00 0.00 99 969.0
20260504234051 77 0 0.0 0.0 0.00 0.00 0.00 99 969.0
20260504233029 77 0 0.0 0.0 0.00 0.00 0.00 99 968.0
20260504232007 76 0 0.0 0.0 0.00 0.00 0.00 99 968.0
20260504230945 76 0 0.0 0.0 0.00 0.00 0.00 99 968.0
20260504225923 75 0 0.0 0.0 0.00 0.00 0.00 99 968.0
20260504224901 75 0 0.0 0.0 0.00 0.00 0.00 99 968.0
20260504223839 75 0 0.0 0.0 0.00 0.00 0.00 99 968.0
20260504222817 74 0 0.0 0.0 0.00 0.00 0.00 99 968.0
20260504221755 73 0 0.0 0.0 0.00 0.00 0.00 99 968.0
20260504220733 74 0 0.0 0.0 0.00 0.00 0.00 99 968.0
20260504215711 74 0 0.0 0.0 0.00 0.00 0.00 99 968.0
20260504214649 75 0 0.0 0.0 0.00 0.00 0.00 99 968.0
20260504213627 76 0 0.0 0.0 0.00 0.00 0.00 99 968.0
20260504212605 76 0 0.0 0.0 0.00 0.00 0.00 99 968.0
20260504211543 78 0 0.0 0.0 0.00 0.00 0.00 99 968.0
20260504210521 78 0 0.0 0.0 0.00 0.00 0.00 99 968.0
20260504205459 78 0 0.0 0.0 0.00 0.00 0.00 99 968.0
20260504204437 78 0 0.0 0.0 0.00 0.00 0.00 99 968.0
20260504203415 80 0 0.0 0.0 0.00 0.00 0.00 99 968.0
20260504202353 79 0 0.0 0.0 0.00 0.00 0.00 99 968.0
20260504201331 79 0 0.0 0.0 0.00 0.00 0.00 99 968.0
20260504200309 80 0 0.0 0.0 0.00 0.00 0.00 99 968.0
20260504195407 78 0 0.0 0.0 0.00 0.00 0.00 99 968.0
20260504194345 79 0 0.0 0.0 0.00 0.00 0.00 99 968.0
20260504193323 80 0 0.0 0.0 0.00 0.00 0.00 99 968.0
20260504192301 80 0 0.0 0.0 0.00 0.00 0.00 99 968.0
20260504191239 79 0 0.0 0.0 0.00 0.00 0.00 99 968.0
20260504190217 79 0 0.0 0.0 0.00 0.00 0.00 99 968.0
20260504185155 79 0 0.0 0.0 0.00 0.00 0.00 99 968.0
20260504184133 80 0 0.0 0.0 0.00 0.00 0.00 99 968.0
20260504183111 80 0 0.0 0.0 0.00 0.00 0.00 99 968.0
20260504182049 80 0 0.0 0.0 0.00 0.00 0.00 99 968.0
20260504181027 80 0 0.0 0.0 0.00 0.00 0.00 99 968.0
20260504180005 80 0 0.0 0.0 0.00 0.00 0.00 99 968.0
20260504174943 80 0 0.0 0.0 0.00 0.00 0.00 99 968.0
20260504173921 79 0 0.0 0.0 0.00 0.00 0.00 99 968.0
20260504172859 79 0 0.0 0.0 0.00 0.00 0.00 99 968.0
20260504171837 80 0 0.0 0.0 0.00 0.00 0.00 99 968.0
20260504170815 81 0 0.0 0.0 0.00 0.00 0.00 99 968.0
20260504150324 87 0 0.0 0.0 0.00 0.00 0.00 99 966.0
20260504141134 92 0 0.0 0.0 0.00 0.00 0.00 77 965.0
20260504140112 92 0 0.0 0.0 0.00 0.00 0.00 77 965.0
20260504110458 96 0 0.0 0.0 0.00 0.00 0.00 50 962.0
20260504100248 97 0 0.0 0.0 0.00 0.00 0.00 46 962.0
20260504081906 96 0 0.0 0.0 0.00 0.00 0.00 50 963.0
20260504080354 96 0 0.0 0.0 0.00 0.00 0.00 51 964.0
20260504070142 95 0 0.0 0.0 0.00 0.00 0.00 64 965.0
20260504050233 90 0 0.0 0.0 0.00 0.00 0.00 87 967.0
20260504045211 90 0 0.0 0.0 0.00 0.00 0.00 90 967.0
20260504044149 89 0 0.0 0.0 0.00 0.00 0.00 90 968.0
20260504043127 89 0 0.0 0.0 0.00 0.00 0.00 97 968.0
20260504042105 88 0 0.0 0.0 0.00 0.00 0.00 99 968.0
20260504041043 87 0 0.0 0.0 0.00 0.00 0.00 99 968.0
20260504040021 87 0 0.0 0.0 0.00 0.00 0.00 99 968.0
20260504034959 86 0 0.0 0.0 0.00 0.00 0.00 99 968.0
20260504033937 85 0 0.0 0.0 0.00 0.00 0.00 99 968.0
20260504032915 84 0 0.0 0.0 0.00 0.00 0.00 99 968.0
20260504031853 83 0 0.0 0.0 0.00 0.00 0.00 99 968.0
20260504030831 83 0 0.0 0.0 0.00 0.00 0.00 99 968.0